Weather History for KOSC - April, 2013

Change the Weather History Date:

Thursday, April 25, 2013

  Actual Average Record
Temperature  
Mean Temperature 36 °F -  
Max Temperature 47 °F 53 °F 75 °F (2008)
Min Temperature 25 °F 33 °F 25 °F (2013)
Degree Days  
Heating Degree Days 29    
Moisture  
Dew Point 28 °F    
Average Humidity 72    
Maximum Humidity 96    
Minimum Humidity 41    
Precipitation  
Precipitation 0.04 in - - ()
Sea Level Pressure  
Sea Level Pressure 30.08 in    
Wind  
Wind Speed 9 mph (WSW)    
Max Wind Speed 23 mph    
Max Gust Speed 37 mph    
Visibility 10 miles    
Events Rain    
Averages and records for this station are not official NWS values.
T = Trace of Precipitation, MM = Missing Value Source: NWS Daily Summary

Daily Weather History Graph

Daily Weather History Graph

Search for Another Location

Airport or City:

Trip Planner

Search our weather history database for the weather conditions in past years. The results will help you decide how hot, cold, wet, or windy it might be!

Date:

Astronomy

Apr. 25, 2013 Rise Set
Actual Time 6:32 AM EDT 8:30 PM EDT
Civil Twilight 6:01 AM EDT 9:02 PM EDT
Nautical Twilight 5:23 AM EDT 9:40 PM EDT
Astronomical Twilight 4:41 AM EDT 10:23 PM EDT
Moon 8:44 PM EDT (4/25) 6:15 AM EDT (4/25)
Length of Visible Light 15h 00m
Length of Day
13h 58m
Full, 100% of the Moon is Illuminated
Apr 25
Full
Apr 25
Full
May 2
Last Quarter
May 9
New
May 18
First Quarter

Hourly Weather History & Observations

Time (EDT) Temp. Windchill Dew Point Humidity Pressure Visibility Wind Dir Wind Speed Gust Speed Precip Events Conditions
12:14 AM 27.1 °F 21.8 °F 25.5 °F 94% 30.03 in 10.0 mi SW 4.6 mph - N/A   Clear
12:34 AM 25.2 °F 18.3 °F 24.1 °F 96% 30.03 in 10.0 mi SW 5.8 mph - N/A   Clear
12:54 AM 29.1 °F 23.0 °F 24.6 °F 83% 30.04 in 10.0 mi SW 5.8 mph - N/A   Clear
1:14 AM 29.3 °F 22.3 °F 24.4 °F 82% 30.04 in 10.0 mi SSW 6.9 mph - N/A   Clear
1:34 AM 27.5 °F 23.6 °F 24.6 °F 89% 30.04 in 10.0 mi SSW 3.5 mph - N/A   Clear
1:54 AM 27.5 °F 23.6 °F 23.7 °F 86% 30.04 in 10.0 mi SSW 3.5 mph - N/A   Clear
2:14 AM 27.3 °F 22.0 °F 24.6 °F 90% 30.03 in 10.0 mi SSW 4.6 mph - N/A   Clear
2:34 AM 31.1 °F 24.5 °F 23.4 °F 73% 30.02 in 10.0 mi SSW 6.9 mph - N/A   Clear
2:54 AM 31.6 °F 25.1 °F 23.2 °F 71% 30.02 in 10.0 mi SSW 6.9 mph - N/A   Clear
3:14 AM 31.8 °F 26.2 °F 23.5 °F 71% 30.01 in 10.0 mi SSW 5.8 mph - N/A   Clear
3:34 AM 31.5 °F 24.9 °F 23.9 °F 74% 30.01 in 10.0 mi SSW 6.9 mph - N/A   Clear
3:54 AM 30.9 °F 23.5 °F 23.9 °F 75% 30.01 in 10.0 mi SSW 8.1 mph - N/A   Clear
4:15 AM 30.0 °F 22.4 °F 24.6 °F 80% 30.01 in 10.0 mi SSW 8.1 mph - N/A   Clear
4:34 AM 31.1 °F 24.5 °F 24.6 °F 77% 30.01 in 10.0 mi SSW 6.9 mph - N/A   Clear
4:54 AM 31.1 °F 24.5 °F 24.8 °F 77% 30.00 in 10.0 mi SSW 6.9 mph - N/A   Clear
5:14 AM 31.1 °F 23.7 °F 25.5 °F 80% 30.00 in 10.0 mi SSW 8.1 mph - N/A   Clear
5:34 AM 32.0 °F 24.2 °F 25.7 °F 78% 30.00 in 10.0 mi SSW 9.2 mph - N/A   Clear
5:54 AM 31.6 °F 25.1 °F 26.2 °F 80% 30.00 in 10.0 mi SSW 6.9 mph - N/A   Clear
6:14 AM 32.0 °F 24.2 °F 26.2 °F 79% 30.01 in 10.0 mi SSW 9.2 mph - N/A   Clear
6:34 AM 31.8 °F 24.6 °F 26.6 °F 81% 30.00 in 10.0 mi South 8.1 mph - N/A   Clear
6:54 AM 32.0 °F 26.4 °F 27.0 °F 82% 30.00 in 10.0 mi South 5.8 mph - N/A   Clear
7:14 AM 32.5 °F 26.2 °F 27.9 °F 83% 30.00 in 10.0 mi South 6.9 mph - N/A   Clear
7:34 AM 33.8 °F 27.7 °F 28.4 °F 81% 30.00 in 10.0 mi SSW 6.9 mph - N/A   Clear
7:54 AM 34.5 °F 29.4 °F 29.3 °F 81% 30.00 in 10.0 mi SSW 5.8 mph - N/A   Clear
8:14 AM 36.0 °F 31.1 °F 30.7 °F 81% 30.00 in 10.0 mi SSW 5.8 mph - N/A   Clear
8:34 AM 36.5 °F 32.7 °F 31.5 °F 82% 30.00 in 10.0 mi WSW 4.6 mph - N/A   Scattered Clouds
8:54 AM 36.5 °F 32.7 °F 31.8 °F 83% 30.00 in 10.0 mi SW 4.6 mph - N/A   Overcast
9:14 AM 37.8 °F 33.3 °F 32.0 °F 80% 30.00 in 10.0 mi SW 5.8 mph - N/A   Overcast
9:34 AM 39.4 °F 33.2 °F 32.2 °F 75% 30.01 in 10.0 mi SW 9.2 mph - N/A   Overcast
9:55 AM 39.4 °F 31.1 °F 32.9 °F 78% 30.00 in 7.0 mi SW 15.0 mph 19.6 mph N/A Rain Rain
10:14 AM 38.3 °F 30.9 °F 34.3 °F 86% 30.00 in 5.0 mi SSW 11.5 mph - N/A Rain Light Rain
10:34 AM 38.3 °F 31.4 °F 35.6 °F 90% 30.00 in 7.0 mi SSW 10.4 mph - N/A Rain Light Rain
10:55 AM 37.6 °F 29.6 °F 35.1 °F 91% 30.00 in 2.0 mi SSW 12.7 mph 19.6 mph 0.02 in Rain Rain
11:14 AM 37.4 °F 29.8 °F 35.6 °F 93% 30.00 in 4.0 mi SSW 11.5 mph - 0.01 in Rain Light Rain
11:34 AM 37.8 °F 31.3 °F 36.1 °F 94% 30.00 in 5.0 mi SSW 9.2 mph - 0.02 in Rain Light Rain
11:55 AM 38.3 °F 31.4 °F 36.5 °F 93% 30.01 in 7.0 mi SSW 10.4 mph - 0.02 in Rain Light Rain
12:14 PM 39.2 °F 32.5 °F 37.0 °F 92% 30.02 in 10.0 mi SW 10.4 mph - N/A   Overcast
12:34 PM 39.9 °F 32.9 °F 37.6 °F 91% 30.02 in 10.0 mi SW 11.5 mph - N/A Rain Light Rain
12:55 PM 39.2 °F 32.0 °F 37.4 °F 93% 30.03 in 10.0 mi WSW 11.5 mph - N/A Rain Light Rain
1:14 PM 40.8 °F 33.7 °F 38.3 °F 91% 30.03 in 10.0 mi WSW 12.7 mph - N/A   Overcast
1:34 PM 43.0 °F 36.4 °F 39.2 °F 86% 30.03 in 10.0 mi WSW 12.7 mph 21.9 mph N/A   Overcast
1:55 PM 45.3 °F 38.1 °F 38.3 °F 76% 30.03 in 10.0 mi WSW 17.3 mph 24.2 mph N/A   Mostly Cloudy
2:14 PM 43.2 °F 35.3 °F 33.4 °F 69% 30.04 in 10.0 mi NW 17.3 mph 32.2 mph N/A   Overcast
2:34 PM 43.7 °F 36.3 °F 33.8 °F 68% 30.05 in 10.0 mi WNW 16.1 mph 21.9 mph N/A   Overcast
2:55 PM 47.5 °F - 34.5 °F 61% 30.05 in 10.0 mi West 16.1 mph 23.0 mph N/A   Overcast
3:14 PM 46.8 °F - 31.5 °F 55% 30.05 in 10.0 mi WSW 13.8 mph 21.9 mph N/A   Overcast
3:34 PM 47.5 °F - 29.1 °F 49% 30.06 in 10.0 mi West 20.7 mph 36.8 mph N/A   Overcast
3:55 PM 45.3 °F 37.3 °F 30.4 °F 56% 30.07 in 10.0 mi WNW 20.7 mph 28.8 mph N/A   Overcast
4:14 PM 46.6 °F - 29.5 °F 51% 30.08 in 10.0 mi WNW 21.9 mph 31.1 mph N/A   Mostly Cloudy
4:34 PM 47.1 °F - 26.6 °F 45% 30.09 in 10.0 mi WNW 21.9 mph 29.9 mph N/A   Mostly Cloudy
4:55 PM 44.1 °F 35.2 °F 27.7 °F 53% 30.10 in 10.0 mi WNW 23.0 mph 27.6 mph N/A   Mostly Cloudy
5:14 PM 43.9 °F 36.2 °F 28.2 °F 54% 30.12 in 10.0 mi West 17.3 mph 24.2 mph N/A   Overcast
5:34 PM 46.2 °F 38.3 °F 28.2 °F 50% 30.12 in 10.0 mi West 21.9 mph 29.9 mph N/A   Mostly Cloudy
5:55 PM 46.4 °F 39.0 °F 26.1 °F 45% 30.13 in 10.0 mi NW 19.6 mph 26.5 mph N/A   Mostly Cloudy
6:14 PM 45.9 °F 38.8 °F 25.9 °F 46% 30.14 in 10.0 mi WNW 17.3 mph 27.6 mph N/A   Mostly Cloudy
6:34 PM 44.6 °F 36.1 °F 24.6 °F 45% 30.15 in 10.0 mi WNW 21.9 mph 27.6 mph N/A   Scattered Clouds
6:54 PM 45.7 °F 38.0 °F 23.4 °F 41% 30.16 in 10.0 mi West 19.6 mph 27.6 mph N/A   Scattered Clouds
7:14 PM 44.8 °F 39.4 °F 23.5 °F 43% 30.16 in 10.0 mi WNW 10.4 mph 23.0 mph N/A   Scattered Clouds
7:34 PM 44.6 °F 39.2 °F 23.7 °F 44% 30.17 in 10.0 mi WNW 10.4 mph - N/A   Clear
7:54 PM 44.2 °F 38.4 °F 22.3 °F 42% 30.18 in 10.0 mi WNW 11.5 mph 18.4 mph N/A   Scattered Clouds
8:14 PM 43.2 °F 39.0 °F 22.5 °F 44% 30.19 in 10.0 mi WNW 6.9 mph - N/A   Scattered Clouds
8:35 PM 41.4 °F 36.2 °F 22.6 °F 47% 30.20 in 10.0 mi WNW 8.1 mph - N/A   Clear
8:54 PM 40.8 °F 36.2 °F 22.8 °F 49% 30.21 in 10.0 mi WNW 6.9 mph - N/A   Clear
9:14 PM 38.5 °F 34.1 °F 22.6 °F 53% 30.23 in 10.0 mi West 5.8 mph - N/A   Clear
9:34 PM 37.4 °F 32.8 °F 23.2 °F 57% 30.23 in 10.0 mi West 5.8 mph - N/A   Clear
9:54 PM 35.4 °F 32.6 °F 23.9 °F 63% 30.25 in 10.0 mi WSW 3.5 mph - N/A   Clear
10:14 PM 35.2 °F 31.2 °F 24.6 °F 65% 30.26 in 10.0 mi WSW 4.6 mph - N/A   Clear
10:35 PM 30.4 °F 25.6 °F 24.1 °F 77% 30.27 in 10.0 mi SW 4.6 mph - N/A   Clear
10:54 PM 30.6 °F 25.8 °F 23.9 °F 76% 30.27 in 10.0 mi SW 4.6 mph - N/A   Clear
11:14 PM 30.0 °F - 24.3 °F 79% 30.28 in 10.0 mi Calm Calm - N/A   Clear
11:35 PM 29.3 °F 24.3 °F 25.7 °F 86% 30.28 in 10.0 mi SW 4.6 mph - N/A   Clear
11:54 PM 27.7 °F 22.4 °F 24.1 °F 86% 30.29 in 10.0 mi SW 4.6 mph - N/A   Clear